ARIANE 42P DEB, 44514

Orbit data source: Space-Track

ARIANE 42P DEB, 44514 is space debris in LEO originally from a launch on Mon, 10 Aug 1992 UTC launched from the French Guiana (FRGUI). Debris objects in space refer to the collection of defunct objects orbiting the Earth. Examples of debris include non-operational satellites, rocket bodies, and fragments generated from explosions, collisions, or faulty payload assembly.

Loading next visibility...
Identifier
44514, 1992-052M
Orbit
LEO
Country
Flag of FRFR
Related business
Manufacturer
ArianeGroup
Mission
Spacecraft
Bus & Motor
Unknown
Mass
Unknown
Launch date (UTC)
1992-08-10 (33 years ago)
Launch vehicle
Unknown
Launch site
French Guiana (FRGUI)
Object type
Payload
Rocket body
Debris
Shape & HBR
Unknown
Radar Cross Section
Small (<0.1 m²)

Expand to show TLE details & history
Last TLE update: 5 days ago

TLE from 5 days ago
0 ARIANE 42P DEB
1 44514U 92052M   25255.91091737  .00000926  00000-0  30184-2 0  9997
2 44514  65.7836 359.5906 0250185 130.1967 232.1247 12.96010074285804
Epoch: 2025-09-12T21:51Z
TLE epoch observation values (Epoch: 2025-09-12T21:51:43.26Z)
Latitude
-0.00003°
Longitude
39.50849°
Altitude
1,400.196 km
Speed
7.104 km/s
True Right ascension
23h 58m 21s
True Declination
0° 00' 00"
Sunlit
Object was in full shadow at epoch
Visualization orbit readout
Latitude
Unknown
Longitude
Unknown
Altitude
Unknown
Speed
Unknown
Apparent Right ascension
Unknown
Apparent Declination
Unknown
Sunlit
N/A
Visualization observer readout
Local Sidereal Time
15:39:20
Azimuth
Unknown
Elevation
Unknown
Doppler factor
Unknown
Orbital elements
Apogee altitude
1,467.846 km
Perigee altitude
1,084.839 km
Semi-major axis
7,654.479 km
Eccentricity
0.02502
Inclination
65.7836°
RAAN
359.5906°
Arg. of periapsis
130.1967°
True anomaly
229.90492°
Mean anomaly
232.1247°
Eccentric anomaly
231.01053°
Mean motion
3.24093 °/min
Orbital period
111.08 mins
BSTAR
0.0030184
Loading maneuver chart data...
Computing Atmospheric mass density...
Loading historical data...
Loading historical data...
Loading historical data...
Loading historical data...
Loading historical data...
Loading historical data...
Loading historical data...

Documentation

Showing up to 5 results
|